Flag for Australia Weather past 2 weeks in Perth, Western Australia, Australia

Now
93 °F

Sunny.


Feels Like: 89 °F
Forecast: 76 / 97 °F
Wind: 15 mph from East

Location: Belmont Perth Airport

Current Time: Jan 26, 2015 at 2:42:41 PM

Latest Report: Jan 26, 2015 at 2:00 PM


Visibility: 10 mi

Pressure: 29.80 "Hg

Humidity: 19%

Dew point: 45 °F

Location of PerthLocation

Historic Weather in Perth — Graph

°F

Perth temperature yesterday

Maximum temperature yesterday: 91 °F (at 3:30 PM)
Minimum temperature yesterday: 63 °F (at 5:00 AM)
Average temperature yesterday: 77 °F

Past Weeks' High & Low Weather Summary

 TemperatureHumidityPressure
High102 °F (Jan 20, 3:30 PM)100% (Jan 14, 4:00 AM)30.04 "Hg (Jan 14, 4:00 AM)
Low57 °F (Jan 12, 2:00 AM)11% (Jan 12, 12:00 PM)29.71 "Hg (Jan 12, 12:30 PM)
Average77 °F49%29.88 "Hg
* Reported Jan 11 1:00 PM — Jan 26 1:30 PM, Perth, Weather by CustomWeather, © 2014

Note: Actual official high and low records may vary slightly from our data, if they occured in-between our weather recording intervals... More about our weather records

Advertising

Perth weather history for previous 24 hours

 ConditionsComfort  
Time TempWeatherWind HumidityBarometerVisibility
1:30 PM
Jan 26
93 °FSunny.13 mph19%29.80 "Hg10 mi
1:00 PM91 °FSunny.13 mph21%29.83 "Hg10 mi
12:30 PM90 °FSunny.15 mph22%29.83 "Hg10 mi
12:00 PM90 °FSunny.15 mph22%29.83 "Hg10 mi
11:00 AM84 °FSunny.16 mph29%29.86 "Hg10 mi
10:30 AM82 °FSunny.17 mph28%29.89 "Hg10 mi
10:00 AM79 °FSunny.21 mph32%29.89 "Hg10 mi
9:30 AM77 °FSunny.22 mph34%29.89 "Hg10 mi
9:00 AM73 °FSunny.18 mph38%29.92 "Hg10 mi
8:30 AM72 °FSunny.16 mph41%29.92 "Hg10 mi
8:02 AM70 °FSunny.17 mph43%29.92 "Hg10 mi
7:30 AM68 °FSunny.16 mph49%29.95 "Hg10 mi
7:01 AM64 °FSunny.17 mph56%29.95 "Hg10 mi
6:30 AM63 °FSunny.14 mph59%29.95 "Hg10 mi
6:00 AM63 °FSunny.8 mph59%29.95 "Hg10 mi
5:30 AM61 °FSunny.10 mph63%29.92 "Hg10 mi
5:00 AM63 °FSunny.8 mph59%29.92 "Hg10 mi
4:30 AM63 °FClear.10 mph59%29.92 "Hg10 mi
4:00 AM63 °FClear.13 mph56%29.92 "Hg10 mi
3:30 AM64 °FClear.13 mph52%29.92 "Hg10 mi
3:00 AM64 °FClear.17 mph52%29.92 "Hg10 mi
2:30 AM66 °FClear.12 mph49%29.92 "Hg10 mi
2:00 AM68 °FClear.15 mph43%29.92 "Hg10 mi
1:30 AM70 °FClear.12 mph40%29.92 "Hg10 mi
1:00 AM72 °FClear.7 mph38%29.92 "Hg10 mi
12:30 AM72 °FClear.9 mph36%29.92 "Hg10 mi
12:00 AM73 °FClear.15 mph31%29.92 "Hg10 mi
11:30 PM
Jan 25
75 °FClear.14 mph27%29.92 "Hg10 mi
11:00 PM77 °FClear.13 mph22%29.92 "Hg10 mi
10:30 PM79 °FClear.13 mph21%29.92 "Hg10 mi
10:00 PM77 °FClear.10 mph26%29.92 "Hg10 mi
9:30 PM72 °FClear.8 mph33%29.92 "Hg10 mi
9:00 PM73 °FClear.9 mph33%29.89 "Hg10 mi
8:30 PM79 °FClear.12 mph26%29.89 "Hg10 mi
8:00 PM81 °FClear.10 mph23%29.89 "Hg10 mi
7:30 PM84 °FClear.10 mph18%29.89 "Hg10 mi
7:00 PM86 °FClear.15 mph18%29.89 "Hg10 mi
6:30 PM90 °FClear.14 mph15%29.86 "Hg10 mi
6:00 PM90 °FSunny.16 mph13%29.86 "Hg10 mi
5:30 PM91 °FSunny.16 mph12%29.86 "Hg10 mi
5:00 PM91 °FSunny.15 mph12%29.86 "Hg10 mi
4:30 PM91 °FSunny.15 mph13%29.86 "Hg10 mi
4:00 PM90 °FSunny.14 mph13%29.89 "Hg10 mi
3:30 PM91 °FSunny.15 mph13%29.89 "Hg10 mi
3:00 PM90 °FSunny.15 mph15%29.92 "Hg10 mi
2:30 PM90 °FSunny.13 mph14%29.92 "Hg10 mi
2:00 PM88 °FSunny.13 mph16%29.92 "Hg10 mi
Weather by CustomWeather, © 2014

See weather overviewHow to use our weather pages